Location: *
(42.5167°N, 12.8500°E)
Time: 13:01:49
(UTC+00:00)

Daily predictions for brighter satellites

Satellite Brightness Start Highest point End
(mag) Time Altitude Azimuth Time Altitude Azimuth Time Altitude Azimuth
BREEZE-M DEB (TANK) 2.2 17:36:05 10° WNW 17:38:10 57° SSW 17:42:28 10° SE
Meteor 2-9 Rocket 4.5 17:37:32 10° SSE 17:43:06 50° E 17:48:34 10° NNE
SL-16 R/B 4.1 17:41:42 10° NW 17:46:47 35° WSW 17:51:50 10° SSW
ATLAS 2AS CENTAUR R/B 3.4 17:39:47 10° NNW 17:47:08 44° NE 17:53:55 10° ESE
Okean 2 3.6 17:43:04 10° N 17:47:10 76° W 17:51:16 10° S
Cosmos 1833 4.4 17:42:39 10° SSW 17:48:23 81° WNW 17:54:05 10° NNE
Lacrosse 4 Rocket 3.0 17:44:50 10° NW 17:48:34 36° WSW 17:52:16 10° S
Cosmos 1842 3.5 17:44:46 10° N 17:48:37 48° ENE 17:52:26 10° SSE
BREEZE-M DEB (TANK) 2.1 17:46:31 10° WNW 17:48:49 55° SSW 17:51:06 10° SE
Cosmos 405 3.0 17:46:33 10° N 17:50:04 84° W 17:53:32 10° S
Cosmos 2297 Rocket 3.9 17:49:57 10° ESE 17:51:11 11° E 17:52:26 10° E
COSMO-SKYMED 1 4.3 17:52:57 10° N 17:57:00 39° WNW 18:01:02 10° SW
Cosmos 2151 Rocket 3.5 17:53:31 10° S 17:57:56 83° E 18:02:20 10° N
H-2A R/B 3.4 17:55:01 10° ESE 17:58:27 19° ENE 18:01:56 10° NNE
Cosmos 1300 Rocket 3.5 17:56:59 10° S 18:01:17 88° W 18:05:37 10° N
Cosmos 2251 Rocket 3.5 17:57:17 10° NNW 18:02:42 76° ENE 18:08:03 10° SSE
Cosmos 2074 Rocket 4.0 17:58:24 10° N 18:04:40 77° E 18:10:53 10° SSE
Cosmos 1461 2.7 18:02:56 10° SSW 18:06:58 75° ESE 18:10:56 10° NE
Cosmos 1544 3.3 18:04:54 10° SSE 18:08:19 44° E 18:11:46 10° NNE
Cosmos 2333 Rocket 2.4 18:03:46 10° NNW 18:09:21 54° ENE 18:14:56 10° SE
CZ-4 R/B 3.6 18:07:15 10° SSW 18:10:34 27° W 18:13:57 10° NW
ASTEX 1 3.8 18:08:16 10° NNE 18:12:53 40° E 18:17:28 10° SSE
GEOS 3 Rocket 3.6 18:09:05 10° SE 18:14:12 86° NE 18:19:21 10° NW
SAR-Lupe-2 3.6 18:11:00 10° NNE 18:14:32 53° ESE 18:18:00 10° S
COSMOS 2455 3.0 18:13:30 10° NNW 18:19:33 78° WSW 18:25:32 10° SSE
FREGAT/IRIS 2.4 18:19:07 12° SSE 18:21:33 59° ENE 18:24:20 10° N
Cosmos 2237 Rocket 3.2 18:16:57 10° N 18:21:51 28° NE 18:24:48 19° E
Cosmos 1441 Rocket 3.1 18:18:54 10° S 18:22:42 69° E 18:26:30 10° NNE
Cosmos 2154 Rocket 3.9 18:19:54 10° N 18:26:06 68° E 18:32:15 10° SSE
Cosmos 1980 4.4 18:25:40 10° N 18:30:49 34° ENE 18:33:33 22° ESE
Cosmos 389 Rocket 3.4 18:30:01 10° NNE 18:32:59 27° ENE 18:33:05 27° ENE
SL-8 R/B 4.2 18:32:18 10° W 18:37:02 58° NNW 18:40:56 15° ENE
ISS -1.3 18:37:09 10° S 18:37:18 11° S 18:37:18 11° S
SJ-6B 2.9 18:37:29 19° SSE 18:40:22 63° ENE 18:44:26 10° N
Resurs 1-3 4.4 18:39:28 28° E 18:40:27 31° ENE 18:44:20 10° N
CZ-2C R/B 4.1 18:39:02 24° E 18:40:35 29° ENE 18:45:10 10° N
MOS 1 4.4 18:35:57 10° SSE 18:41:39 80° WSW 18:47:23 10° NNW
Ariane Rocket 4.0 18:37:29 10° S 18:42:21 46° W 18:47:14 10° NNW
SL-8 Rocket 4.5 18:36:46 10° N 18:42:30 38° ENE 18:45:17 25° ESE
Resurs 01 Rocket 2.7 18:42:03 25° ENE 18:42:30 26° ENE 18:46:10 10° NNE
Aureole 1 Rocket 3.5 18:37:36 10° NNW 18:42:47 63° WSW 18:46:29 11° S
Okean 1 Rocket 3.2 18:38:51 10° SSW 18:43:10 75° W 18:47:31 10° N
Cosmos 1707 2.6 18:42:13 10° N 18:46:08 72° E 18:48:16 25° SSE
Meteor 1-4 Rocket 3.5 18:45:12 10° N 18:47:52 30° NE 18:47:52 30° NE
Cosmos 2056 Rocket 3.9 18:43:55 10° S 18:48:59 42° ESE 18:54:04 10° NNE
USA 186 1.9 18:48:19 25° S 18:50:10 79° W 18:53:36 10° NNW
SL-16 R/B 3.7 18:46:38 10° N 18:50:46 20° NE 18:51:54 19° ENE
GP-B 4.4 18:47:51 10° NNW 18:52:02 42° W 18:56:12 10° SSW
NOSS 3-4 (A) 3.9 18:47:40 10° NNW 18:54:42 71° NE 18:59:02 28° SE
NOSS 3-4 (C) 3.9 18:47:46 10° NNW 18:54:48 70° NE 18:59:07 28° SE
Cosmos 407 Rocket 3.6 18:51:49 10° N 18:56:51 52° ENE 18:58:21 39° ESE
COSMOS 2428 3.1 18:54:37 10° NNW 19:00:13 62° WSW 19:04:55 15° S
Cosmos 2219 Rocket 2.6 18:55:03 10° NNW 19:00:34 63° WSW 19:05:02 16° S
Cosmos 614 Rocket 4.1 18:55:29 10° NNW 19:00:36 54° ENE 19:02:01 41° ESE
Cosmos 1624 Rocket 4.0 18:56:16 10° S 19:01:18 55° ESE 19:06:23 10° NNE
SPOT 3 Rocket 3.6 19:01:51 17° S 19:05:55 77° WSW 19:11:06 10° NNW
Meteor 1-15 Rocket 4.2 19:08:39 10° S 19:14:24 87° W 19:20:17 10° N
CZ-2C R/B 4.4 19:12:27 10° NE 19:14:19 18° NE 19:14:19 18° NE
Spot 2 Rocket 4.2 19:20:07 37° NE 19:20:07 37° NE 19:24:19 10° N
Cosmos 1892 Rocket 3.5 19:15:35 10° N 19:20:04 89° W 19:20:44 65° S
Cosmos 2219 3.3 19:16:04 10° SSW 19:21:49 78° WNW 19:27:36 10° NNE
Okean 1-7 Rocket 3.5 19:17:24 10° N 19:21:51 83° W 19:22:38 60° S
Cosmos 2227 Rocket 2.1 19:17:36 10° S 19:23:10 64° ESE 19:28:47 10° NNE
NOSS 0 Rocket 4.0 19:17:28 10° NNW 19:23:40 73° WSW 19:26:26 35° S
Cosmos 1140 Rocket 3.4 19:21:48 10° NNW 19:26:58 64° ENE 19:27:07 63° ENE
ADEOS Rocket 3.5 19:20:45 10° NNE 19:28:06 88° WNW 19:35:52 10° SSW
Cosmos 1371 Rocket 4.3 19:26:30 10° SSW 19:31:46 69° WNW 19:37:08 10° NNE
ARGOS 3.4 19:31:11 33° S 19:33:33 64° W 19:38:55 10° NNW
Cosmos 1437 Rocket 4.4 19:30:16 10° N 19:32:05 26° N 19:32:05 26° N
Cosmos 2297 Rocket 2.0 19:28:37 10° SSW 19:34:16 83° ESE 19:39:58 10° NNE
H-2A R/B 2.6 19:35:31 33° SSW 19:37:27 52° W 19:42:20 10° NNW
ATLAS 2AS CENTAUR R/B 3.5 19:31:02 10° NW 19:38:13 48° WSW 19:41:52 26° S
Cosmos 405 Rocket 3.9 19:40:22 40° NW 19:40:22 40° NW 19:43:18 10° N
Cosmos 676 Rocket 4.0 19:43:17 10° NNW 19:48:04 71° N 19:48:04 71° N
Meteor 1-24 Rocket 3.7 19:42:56 10° N 19:48:37 76° ENE 19:48:37 76° ENE
Cosmos 2181 Rocket 4.4 19:43:54 10° SSW 19:50:01 60° W 19:56:17 10° N
SL-08 R/B 4.4 19:44:58 10° N 19:51:28 75° E 19:51:45 73° ESE
Cosmos 2333 Rocket 4.2 19:48:52 10° NW 19:53:12 23° W 19:57:12 11° SSW
MetOp-A 4.5 19:57:57 55° SW 19:58:31 58° W 20:03:48 10° NNW
FALCON 9 R/B 4.5 19:15:01 10° W 19:59:39 61° SSW 20:04:37 44° SSE
Cosmos 1455 Rocket 4.2 20:00:39 40° W 20:00:47 40° WNW 20:05:00 10° N
Meteor 2-5 Rocket 4.2 19:57:05 10° NNW 20:02:48 60° W 20:03:38 55° SW
Cosmos 2237 Rocket 2.9 20:00:40 10° NW 20:06:06 46° WSW 20:06:39 45° SW
Resurs 01 Rocket 3.4 20:19:37 29° WNW 20:19:37 29° WNW 20:22:49 10° NNW
CZ-2C R/B 4.2 20:20:05 38° W 20:20:15 38° W 20:25:16 10° NNW
SL-16 R/B 3.1 20:29:48 10° NNW 20:33:46 46° NW 20:33:46 46° NW
CZ-2C R/B 4.1 20:52:16 10° N 20:55:49 34° NNW 20:55:49 34° NNW
USA 234 4.4 20:57:41 34° NNE 20:57:41 34° NNE 21:03:26 10° NW
Terra 4.4 21:02:06 16° N 21:02:06 16° N 21:03:05 10° N
Cosmos 2227 Rocket 4.4 21:03:25 10° W 21:07:43 22° NW 21:12:03 10° N
CZ-4C R/B 4.5 21:54:58 10° NNW 21:59:37 25° NNE 21:59:37 25° NNE
